ALTAIR PATHFINDER (42711 NORAD) Tracking and Keplerian Element Data

This shows tracking and keplerian element data for the satellite.

Feedback or suggestion? Click here.




ElementValue
Catalog42711
NameALTAIR PATHFINDER
Epoch Orbit8474
Epoch Day316.64677029
Epoch Year2018
RAAN329.6982
Inclination51.6349
Eccentricity0.0004626
Argument of Perigee30.9546
Mean Anonmoly329.1723
Mean Motion15.69002805
Decay Rate0.00020234
L11 42711U 98067LS 18316.64677029 .00020234 00000-0 17618-3 0 9992
L22 42711 51.6349 329.6982 0004626 30.9546 329.1723 15.69002805 84745

Live tracking and technical data element details for ALTAIR PATHFINDER (NORAD 42711). ALTAIR PATHFINDER can be tracked NOW for your location showing map with azimuth and elevation plus other details from your city location.

Track the satellite on the map from your city or location and see movement details for azimuth, elevation, latitude, longitude, range, height, and movement on the map or in text.







IsCatalogInMostPopularTable: catalog: 42711, numindb: 123
Update: records affected: 1



GetName: 42711 ALTAIR PATHFINDER

Hit Count: updated at: Tue, 13 Nov 2018 22:44:32 GMT